Back to catalog

STARLINK-37973

AliveCommunicationsVLEO
NORAD 100281·PAYLOAD·🇺🇸 United States

Launched Aug 11, 2026 from Cape Canaveral Space Force Station

Loading…

Next Passes (next 24 hours)

TLE

AgingSource: Space-Track

Epoch: Sep 10, 2026, 22:56 UTC

1 A0281U 26183K   26253.95570656 -.00441862  00000-0 -39316-2 0  9993
2 A0281  53.1594 304.5040 0001805 224.3067 135.7806 15.69137483  4803

Track STARLINK-37973 in real time with AllMySat

Download on the App Store